W5DRO-13 Weather Reports


Display with metric or nautical units.
time (UTC)temp
F
wind
direction
speed
MPH
gust
MPH
rain 1hr
in
rain 24hr
in
rain mn
in
humidity
%
barometer
mb
20260505140154 70 46 1.0 3.0 0.00 0.00 0.00 82 1003.2
20260505130118 66 47 1.0 2.0 0.00 0.00 0.00 88 1002.8
20260505124607 66 52 1.0 2.0 0.00 0.00 0.00 88 1002.7
20260505124103 66 32 0.0 1.0 0.00 0.00 0.00 89 1002.6
20260505123600 65 71 0.0 1.0 0.00 0.00 0.00 89 1002.6
20260505123056 65 48 1.0 2.0 0.00 0.00 0.00 89 1002.4
20260505122553 65 48 0.0 1.0 0.00 0.00 0.00 89 1002.5
20260505122050 65 42 2.0 4.0 0.00 0.00 0.00 88 1002.7
20260505121547 65 71 0.0 1.0 0.00 0.00 0.00 88 1002.3
20260505121044 66 46 0.0 2.0 0.00 0.00 0.00 88 1002.4
20260505120540 66 51 2.0 2.0 0.00 0.00 0.00 87 1002.3
20260505120035 66 70 2.0 2.0 0.00 0.00 0.00 87 1002.3
20260505115530 66 47 1.0 2.0 0.00 0.00 0.00 87 1002.2
20260505115028 67 53 0.0 0.0 0.00 0.00 0.00 86 1002.1
20260505114525 67 53 0.0 2.0 0.00 0.00 0.00 86 1001.7
20260505114021 67 63 0.0 1.0 0.00 0.00 0.00 85 1001.5
20260505113518 67 64 0.0 1.0 0.00 0.00 0.00 85 1001.6
20260505113014 67 64 1.0 1.0 0.00 0.00 0.00 85 1001.5
20260505112511 67 49 1.0 3.0 0.00 0.00 0.00 85 1001.4
20260505112009 67 34 0.0 0.0 0.00 0.00 0.00 84 1001.3
20260505111508 67 54 1.0 1.0 0.00 0.00 0.00 85 1001.4
20260505111004 67 72 0.0 0.0 0.00 0.00 0.00 86 1001.3
20260505110501 67 38 1.0 2.0 0.00 0.00 0.00 85 1001.2
20260505101933 69 58 2.0 2.0 0.00 0.00 0.00 80 1000.1
20260505101432 69 67 0.0 0.0 0.00 0.00 0.00 80 1000.4
20260505100928 69 246 0.0 0.0 0.00 0.00 0.00 80 1000.1
20260505100425 69 245 0.0 3.0 0.00 0.00 0.00 80 1000.1
20260505095921 70 254 1.0 2.0 0.00 0.00 0.00 79 1000.0
20260505095418 70 28 0.0 1.0 0.00 0.00 0.00 78 1000.0
20260505094914 70 271 0.0 1.0 0.00 0.00 0.00 78 1000.4
20260505094412 71 37 1.0 1.0 0.00 0.00 0.00 77 1000.0
20260505093907 71 39 1.0 1.0 0.00 0.00 0.00 76 999.8
20260505093404 71 44 0.0 0.0 0.00 0.00 0.00 76 1000.0
20260505092902 71 19 0.0 2.0 0.00 0.00 0.00 75 1000.0
20260505092400 72 358 0.0 0.0 0.00 0.00 0.00 75 999.8
20260505091857 72 67 1.0 3.0 0.00 0.00 0.00 75 1000.0
20260505091355 72 331 0.0 3.0 0.00 0.00 0.00 74 999.8
20260505090852 72 294 1.0 6.0 0.00 0.00 0.00 74 999.7
20260505090350 72 262 3.0 6.0 0.00 0.00 0.00 74 999.6
20260505085847 72 355 1.0 4.0 0.00 0.00 0.00 74 999.8
20260505085345 72 135 2.0 6.0 0.00 0.00 0.00 74 999.7
20260505084843 72 321 0.0 2.0 0.00 0.00 0.00 74 999.8
20260505084341 72 318 1.0 7.0 0.00 0.00 0.00 74 999.7
20260505083838 72 150 2.0 8.0 0.00 0.00 0.00 74 999.9
20260505083336 72 231 1.0 6.0 0.00 0.00 0.00 74 1000.1
20260505082832 72 41 1.0 8.0 0.00 0.00 0.00 74 1000.3
20260505082328 72 288 2.0 3.0 0.00 0.00 0.00 74 1000.0
20260505081825 72 273 0.0 8.0 0.00 0.00 0.00 74 1000.3
20260505081322 72 304 3.0 6.0 0.00 0.00 0.00 75 1000.3
20260505080818 72 242 3.0 4.0 0.00 0.00 0.00 74 1000.4
20260505080314 72 271 0.0 4.0 0.00 0.00 0.00 74 1000.3
20260505075810 72 252 2.0 6.0 0.00 0.00 0.00 74 1000.3
20260505075307 72 105 1.0 3.0 0.00 0.00 0.00 74 1000.4
20260505074804 72 81 2.0 3.0 0.00 0.00 0.00 74 1000.5
20260505074301 72 286 1.0 3.0 0.00 0.00 0.00 74 1000.6
20260505073759 72 44 0.0 3.0 0.00 0.00 0.00 74 1000.7
20260505073257 72 149 2.0 6.0 0.00 0.00 0.00 74 1000.7
20260505072753 72 69 1.0 4.0 0.00 0.00 0.00 74 1000.7
20260505072249 72 322 3.0 7.0 0.00 0.00 0.00 74 1000.8
20260505071745 72 202 1.0 7.0 0.00 0.00 0.00 74 1001.0
20260505071242 72 313 1.0 10.0 0.00 0.00 0.00 74 1001.1
20260505070740 72 218 1.0 4.0 0.00 0.00 0.00 74 1001.0
20260505070236 72 7 1.0 3.0 0.00 0.00 0.00 74 1001.1
20260505065731 72 32 1.0 6.0 0.00 0.00 0.00 73 1001.3
20260505065229 72 340 0.0 1.0 0.00 0.00 0.00 73 1001.3
20260505064725 72 30 4.0 9.0 0.00 0.00 0.00 73 1001.1
20260505064223 72 97 0.0 4.0 0.00 0.00 0.00 73 1001.2
20260505063720 72 48 3.0 4.0 0.00 0.00 0.00 73 1001.3
20260505063217 72 253 1.0 1.0 0.00 0.00 0.00 74 1001.5
20260505062713 72 64 1.0 4.0 0.00 0.00 0.00 74 1001.6
20260505062211 72 242 1.0 3.0 0.00 0.00 0.00 74 1001.6
20260505061708 72 39 1.0 4.0 0.00 0.00 0.00 74 1001.5
20260505061206 72 156 0.0 3.0 0.00 0.00 0.00 74 1001.7
20260505060703 72 249 0.0 4.0 0.00 0.00 0.00 74 1001.8
20260505060159 72 69 0.0 2.0 0.00 0.00 0.00 74 1001.8
20260505055655 72 108 1.0 4.0 0.00 0.00 0.00 73 1001.7
20260505055151 72 285 0.0 2.0 0.00 0.00 0.00 73 1001.7
20260505054649 72 285 2.0 4.0 0.00 0.00 0.00 73 1002.0
20260505054147 72 48 1.0 4.0 0.00 0.00 0.00 74 1001.8
20260505053644 72 60 0.0 1.0 0.00 0.00 0.00 73 1002.0
20260505053140 72 69 2.0 3.0 0.00 0.00 0.00 73 1001.9
20260505052638 72 80 2.0 3.0 0.00 0.00 0.00 73 1001.9
20260505052135 72 48 1.0 4.0 0.00 0.00 0.00 73 1002.2
20260505051632 72 43 1.0 3.0 0.00 0.00 0.00 73 1002.1
20260505051130 72 123 2.0 4.0 0.00 0.00 0.00 73 1002.1
20260505050627 72 332 1.0 4.0 0.00 0.00 0.00 72 1002.3
20260505050126 72 249 1.0 2.0 0.00 0.00 0.00 72 1002.6
20260505041555 73 108 1.0 7.0 0.00 0.00 0.00 70 1003.1
20260505041053 73 239 1.0 2.0 0.00 0.00 0.00 70 1002.8
20260505040550 73 65 0.0 3.0 0.00 0.00 0.00 70 1002.7
20260505040047 73 72 1.0 6.0 0.00 0.00 0.00 70 1002.6
20260505035543 73 44 0.0 2.0 0.00 0.00 0.00 70 1002.9
20260505035040 73 239 0.0 3.0 0.00 0.00 0.00 70 1002.7
20260505034536 73 104 0.0 1.0 0.00 0.00 0.00 70 1002.8
20260505034033 73 230 1.0 3.0 0.00 0.00 0.00 69 1003.0
20260505033530 74 173 1.0 4.0 0.00 0.00 0.00 69 1003.0
20260505033028 74 86 0.0 3.0 0.00 0.00 0.00 69 1002.8
20260505032526 74 62 0.0 3.0 0.00 0.00 0.00 69 1002.9
20260505032022 74 143 2.0 3.0 0.00 0.00 0.00 69 1002.8
20260505031520 74 91 1.0 2.0 0.00 0.00 0.00 69 1002.8
20260505031015 74 56 0.0 2.0 0.00 0.00 0.00 69 1002.7
20260505030513 74 151 1.0 2.0 0.00 0.00 0.00 68 1002.8
20260505030009 74 259 0.0 2.0 0.00 0.00 0.00 68 1002.8
20260505025505 74 1 1.0 1.0 0.00 0.00 0.00 68 1002.7
20260505025004 74 241 1.0 3.0 0.00 0.00 0.00 68 1002.7
20260505024500 74 222 1.0 2.0 0.00 0.00 0.00 67 1002.4
20260505023957 74 233 1.0 3.0 0.00 0.00 0.00 67 1002.5
20260505023454 75 223 1.0 6.0 0.00 0.00 0.00 67 1002.3
20260505022952 75 128 2.0 3.0 0.00 0.00 0.00 67 1002.2
20260505022449 75 253 2.0 3.0 0.00 0.00 0.00 67 1002.4
20260505021946 75 141 1.0 2.0 0.00 0.00 0.00 67 1002.4
20260505021443 75 100 0.0 2.0 0.00 0.00 0.00 66 1002.4
20260505020938 75 208 0.0 1.0 0.00 0.00 0.00 66 1002.4
20260505020434 75 232 0.0 1.0 0.00 0.00 0.00 66 1002.4
20260505015931 75 217 0.0 2.0 0.00 0.00 0.00 65 1002.4
20260505015428 75 143 1.0 1.0 0.00 0.00 0.00 65 1002.3
20260505014925 76 139 0.0 1.0 0.00 0.00 0.00 65 1002.4
20260505014422 76 249 0.0 1.0 0.00 0.00 0.00 65 1002.4
20260505013919 76 77 1.0 3.0 0.00 0.00 0.00 64 1002.3
20260505013416 76 64 0.0 2.0 0.00 0.00 0.00 64 1002.7
20260505012914 76 226 0.0 0.0 0.00 0.00 0.00 64 1002.6
20260505012412 76 218 0.0 1.0 0.00 0.00 0.00 63 1002.7
20260505011908 76 212 1.0 1.0 0.00 0.00 0.00 63 1002.6
20260505011404 77 58 0.0 1.0 0.00 0.00 0.00 62 1002.5
20260505010901 77 194 0.0 1.0 0.00 0.00 0.00 62 1002.6
20260505010357 77 73 1.0 1.0 0.00 0.00 0.00 62 1002.7
20260505005853 77 227 1.0 1.0 0.00 0.00 0.00 61 1002.6
20260505005350 78 278 0.0 0.0 0.00 0.00 0.00 61 1002.5
20260505004848 78 180 0.0 1.0 0.00 0.00 0.00 60 1002.7
20260505004343 78 180 0.0 1.0 0.00 0.00 0.00 60 1002.6
20260505003841 78 150 1.0 2.0 0.00 0.00 0.00 60 1002.7
20260505003338 79 258 1.0 3.0 0.00 0.00 0.00 59 1002.8
20260505002834 79 194 1.0 2.0 0.00 0.00 0.00 59 1002.8
20260505002331 79 202 2.0 3.0 0.00 0.00 0.00 58 1002.8
20260505001830 80 254 0.0 6.0 0.00 0.00 0.00 58 1002.7
20260505001326 80 206 1.0 2.0 0.00 0.00 0.00 58 1002.8
20260505000823 81 224 0.0 2.0 0.00 0.00 0.00 57 1002.7
20260505000321 80 108 0.0 1.0 0.00 0.00 0.00 58 1002.8
20260504235818 80 71 1.0 2.0 0.00 0.00 0.00 57 1002.9
20260504235314 81 233 1.0 1.0 0.00 0.00 0.00 57 1002.9
20260504234811 81 158 0.0 2.0 0.00 0.00 0.00 57 1003.0
20260504234309 80 155 0.0 1.0 0.00 0.00 0.00 57 1003.1
20260504233805 80 210 0.0 2.0 0.00 0.00 0.00 57 1002.9
20260504233301 80 273 2.0 3.0 0.00 0.00 0.00 56 1003.1
20260504232758 80 278 1.0 2.0 0.00 0.00 0.00 56 1003.6
20260504232255 80 269 0.0 2.0 0.00 0.00 0.00 56 1003.4
20260504231752 80 244 0.0 3.0 0.00 0.00 0.00 57 1003.4
20260504231248 80 177 0.0 3.0 0.00 0.00 0.00 56 1003.5
20260504230744 80 233 1.0 3.0 0.00 0.00 0.00 57 1003.8
20260504230243 81 222 1.0 2.0 0.00 0.00 0.00 57 1003.8
20260504225741 81 258 0.0 2.0 0.00 0.00 0.00 56 1003.8
20260504225237 81 220 0.0 3.0 0.00 0.00 0.00 55 1003.8
20260504224734 82 222 1.0 2.0 0.00 0.00 0.00 54 1004.0
20260504224231 82 33 1.0 3.0 0.00 0.00 0.00 54 1004.2
20260504223728 82 129 0.0 3.0 0.00 0.00 0.00 54 1004.2
20260504223223 81 345 1.0 4.0 0.00 0.00 0.00 54 1004.0
20260504222721 81 73 1.0 3.0 0.00 0.00 0.00 53 1004.3
20260504222217 81 236 1.0 2.0 0.00 0.00 0.00 54 1004.0
20260504221715 81 37 1.0 2.0 0.00 0.00 0.00 53 1004.1
20260504221212 81 242 2.0 3.0 0.00 0.00 0.00 53 1004.1
20260504220708 81 115 1.0 4.0 0.00 0.00 0.00 54 1004.1
20260504220206 81 271 1.0 7.0 0.00 0.00 0.00 53 1004.0
20260504215702 81 167 1.0 6.0 0.00 0.00 0.00 53 1003.9
20260504215159 81 327 1.0 3.0 0.00 0.00 0.00 53 1004.1
20260504214655 81 42 1.0 3.0 0.00 0.00 0.00 53 1004.0
20260504214152 81 52 0.0 4.0 0.00 0.00 0.00 52 1004.2
20260504213648 81 135 1.0 3.0 0.00 0.00 0.00 52 1004.3
20260504213145 81 234 5.0 9.0 0.00 0.00 0.00 52 1004.3
20260504212642 81 31 1.0 4.0 0.00 0.00 0.00 52 1004.4
20260504212138 81 178 2.0 6.0 0.00 0.00 0.00 52 1004.4
20260504211636 81 8 3.0 4.0 0.00 0.00 0.00 52 1004.5
20260504211132 82 227 4.0 6.0 0.00 0.00 0.00 51 1004.6
20260504210630 83 79 1.0 4.0 0.00 0.00 0.00 50 1004.6
20260504210126 83 226 2.0 4.0 0.00 0.00 0.00 49 1004.7
20260504205624 83 87 0.0 6.0 0.00 0.00 0.00 49 1004.7
20260504205121 83 5 1.0 2.0 0.00 0.00 0.00 50 1004.6
20260504204620 84 32 1.0 6.0 0.00 0.00 0.00 47 1005.0
20260504204118 84 51 1.0 4.0 0.00 0.00 0.00 47 1004.7
20260504203616 85 252 0.0 8.0 0.00 0.00 0.00 48 1004.8
20260504203113 84 65 1.0 4.0 0.00 0.00 0.00 47 1005.0
20260504202608 84 249 3.0 6.0 0.00 0.00 0.00 47 1004.9
20260504202106 85 38 0.0 4.0 0.00 0.00 0.00 47 1004.9
20260504201602 85 55 0.0 4.0 0.00 0.00 0.00 47 1005.1
20260504201100 85 67 1.0 2.0 0.00 0.00 0.00 47 1005.4
20260504200556 85 44 2.0 8.0 0.00 0.00 0.00 46 1005.5
20260504200053 85 207 4.0 10.0 0.00 0.00 0.00 46 1005.7
20260504195549 85 45 1.0 3.0 0.00 0.00 0.00 46 1005.5
20260504195046 85 186 2.0 4.0 0.00 0.00 0.00 45 1005.5
20260504194543 85 261 2.0 4.0 0.00 0.00 0.00 45 1005.8
20260504194038 84 162 2.0 6.0 0.00 0.00 0.00 47 1006.0
20260504193535 84 44 1.0 3.0 0.00 0.00 0.00 46 1005.8
20260504193034 83 80 3.0 7.0 0.00 0.00 0.00 48 1006.3
20260504192532 83 250 2.0 6.0 0.00 0.00 0.00 47 1006.1
20260504192029 83 302 2.0 6.0 0.00 0.00 0.00 46 1006.2
20260504191527 83 49 2.0 4.0 0.00 0.00 0.00 47 1006.0
20260504191023 83 282 4.0 8.0 0.00 0.00 0.00 45 1006.2
20260504190519 84 59 2.0 6.0 0.00 0.00 0.00 46 1006.3
20260504190015 84 29 1.0 6.0 0.00 0.00 0.00 45 1006.3
20260504185512 83 256 2.0 3.0 0.00 0.00 0.00 46 1006.4
20260504185009 83 126 2.0 9.0 0.00 0.00 0.00 47 1006.4
20260504184510 83 240 1.0 3.0 0.00 0.00 0.00 46 1006.5
20260504184006 84 42 1.0 4.0 0.00 0.00 0.00 46 1006.5
20260504183503 83 329 1.0 6.0 0.00 0.00 0.00 47 1006.5
20260504183001 83 31 2.0 4.0 0.00 0.00 0.00 46 1006.6
20260504182457 82 50 2.0 6.0 0.00 0.00 0.00 47 1006.5
20260504181955 82 75 1.0 6.0 0.00 0.00 0.00 47 1006.7
20260504181452 82 171 1.0 7.0 0.00 0.00 0.00 47 1007.0
20260504180950 82 272 5.0 11.0 0.00 0.00 0.00 46 1007.0
20260504180449 81 82 2.0 7.0 0.00 0.00 0.00 46 1007.1
20260504175947 81 229 4.0 7.0 0.00 0.00 0.00 45 1007.1
20260504175443 82 287 2.0 9.0 0.00 0.00 0.00 45 1007.5
20260504174941 82 345 2.0 4.0 0.00 0.00 0.00 46 1007.3
20260504174439 81 38 2.0 8.0 0.00 0.00 0.00 47 1007.5
20260504173936 81 283 2.0 11.0 0.00 0.00 0.00 46 1007.5
20260504173432 82 260 3.0 10.0 0.00 0.00 0.00 44 1007.3
20260504172930 81 287 3.0 3.0 0.00 0.00 0.00 45 1007.4
20260504172426 80 276 2.0 3.0 0.00 0.00 0.00 48 1007.6
20260504171922 79 261 4.0 13.0 0.00 0.00 0.00 47 1007.6
20260504171419 79 356 2.0 4.0 0.00 0.00 0.00 46 1007.6
20260504170916 80 285 2.0 4.0 0.00 0.00 0.00 47 1007.5
20260504170413 79 281 2.0 16.0 0.00 0.00 0.00 47 1007.6
20260504160331 78 296 1.0 6.0 0.00 0.00 0.00 48 1008.1
20260504150756 74 226 1.0 2.0 0.00 0.00 0.00 50 1008.5
20260504150253 74 89 2.0 7.0 0.00 0.00 0.00 49 1008.8